This demonstration page uses our WeatherBlox Daily Observations layout. Learn more.

Hourly Observations for March 26, 2018

Temp ( °F °C ) Dew Point ( °F °C ) Humidity (%) Winds ( mph kmh ) Pressure ( in mb ) Visibility ( mi km ) Precip ( " mm )
12:15 am 00:15 Cloudy with Mist and Fog 36 2 35 1.8 99 99 E 12 19 29.97 1015 4 6.43736 0 0
12:35 am 00:35 Cloudy 36 2.1 36 2 99 99 E 16 26 29.97 1015 7 11.26538 0 0
12:55 am 00:55 Cloudy 36 2.1 36 2 99 99 E 15 24 29.94 1014 7 11.26538 0 0
1:15 am 01:15 Cloudy 36 2.1 36 2 99 99 E 10 17 29.97 1015 7 11.26538 0 0
1:35 am 01:35 Cloudy 36 2.1 36 2 99 99 E 13 20 29.97 1015 7 11.26538 0 0
1:55 am 01:55 Cloudy with Mist and Fog 36 2.1 36 2 99 99 ENE 14 22 29.94 1014 5 8.0467 0 0
3:35 am 03:35 Cloudy with Light Rain 36 2 36 2 100 100 ENE 12 19 29.94 1014 3 4.82802 0 0
4:35 am 04:35 Cloudy with Nearby Thunderstorms 35 1.8 35 1.8 100 100 ENE 8 13 29.94 1014 2 3.21868 0 0
4:55 am 04:55 Cloudy with Mist and Fog 35 1.9 35 1.9 100 100 NE 8 13 29.94 1014 2 3.21868 0 0
5:15 am 05:15 Cloudy with Mist and Fog 35 1.8 35 1.8 100 100 NE 7 11 29.94 1014 2 3.21868 0 0
5:35 am 05:35 Cloudy with Mist and Fog 35 1.8 35 1.8 100 100 NE 7 11 29.94 1014 1.75 2.816345 0 0
5:55 am 05:55 Cloudy with Mist and Fog 35 1.8 35 1.8 100 100 NE 8 13 29.94 1014 2 3.21868 0 0
6:15 am 06:15 Cloudy with Mist and Fog 35 1.8 35 1.8 100 100 ENE 8 13 29.94 1014 2 3.21868 0 0
6:35 am 06:35 Cloudy with Mist and Fog 35 1.8 35 1.8 100 100 ENE 8 13 29.94 1014 2 3.21868 0 0
6:55 am 06:55 Cloudy with Mist and Fog 35 1.7 35 1.7 100 100 ENE 10 17 29.91 1013 2 3.21868 0 0
7:15 am 07:15 Cloudy with Mist and Fog 35 1.8 35 1.8 100 100 ENE 12 19 29.91 1013 2 3.21868 0 0
7:35 am 07:35 Cloudy with Mist and Fog 35 1.7 35 1.7 100 100 ENE 14 22 29.88 1012 2 3.21868 0 0
7:55 am 07:55 Cloudy with Mist and Fog 35 1.7 35 1.7 100 100 E 12 19 29.94 1014 2.5 4.02335 0 0
8:15 am 08:15 Cloudy with Mist and Fog 35 1.7 35 1.7 100 100 E 9 15 29.94 1014 2.5 4.02335 0 0
8:35 am 08:35 Cloudy with Mist and Fog 35 1.8 35 1.8 100 100 E 8 13 29.94 1014 1.75 2.816345 0 0
8:55 am 08:55 Cloudy with Mist and Fog 36 2 36 2 100 100 ENE 3 6 29.97 1015 1.75 2.816345 0 0
9:15 am 09:15 Cloudy with Mist and Fog 36 2 36 2 100 100 ENE 6 9 29.97 1015 1.5 2.41401 0 0
9:35 am 09:35 Cloudy with Mist and Fog 36 2.1 36 2.1 100 100 NNE 8 13 29.97 1015 1.75 2.816345 0 0
9:55 am 09:55 Cloudy with Mist and Fog 36 2.2 36 2.2 100 100 NNE 7 11 29.97 1015 2.5 4.02335 0 0
10:15 am 10:15 Cloudy with Mist and Fog 36 2.2 36 2.2 100 100 NNE 10 17 29.94 1014 2.5 4.02335 0 0
10:35 am 10:35 Cloudy with Mist and Fog 36 2.3 36 2.3 100 100 N 10 17 29.97 1015 3 4.82802 0 0
10:55 am 10:55 Cloudy with Mist and Fog 37 2.5 37 2.5 100 100 N 9 15 29.97 1015 1.75 2.816345 0 0
11:15 am 11:15 Cloudy with Mist and Fog 37 2.5 37 2.5 100 100 N 9 15 29.97 1015 1.75 2.816345 0 0
11:35 am 11:35 Cloudy with Mist and Fog 37 2.6 37 2.6 100 100 N 10 17 29.97 1015 3 4.82802 0 0
11:55 am 11:55 Cloudy with Mist and Fog 37 2.8 37 2.8 100 100 N 10 17 29.97 1015 3 4.82802 0 0
12:15 pm 12:15 Cloudy with Mist and Fog 38 3.1 38 3.1 100 100 N 12 19 29.97 1015 3 4.82802 0 0
12:35 pm 12:35 Cloudy with Mist and Fog 38 3.2 38 3.2 100 100 N 10 17 29.97 1015 4 6.43736 0 0
12:55 pm 12:55 Cloudy with Mist and Fog 38 3.5 38 3.5 100 100 N 9 15 29.97 1015 5 8.0467 0 0
1:15 pm 13:15 Cloudy 39 3.7 38 3.5 99 99 N 8 13 29.97 1015 7 11.26538 0 0
1:35 pm 13:35 Cloudy 39 4.1 39 3.9 99 99 NNE 8 13 29.97 1015 7 11.26538 0 0
1:55 pm 13:55 Cloudy 40 4.5 39 4 97 97 N 8 13 29.97 1015 7 11.26538 0 0
2:15 pm 14:15 Cloudy 40 4.6 39 3.9 95 95 N 9 15 29.97 1015 10 16.0934 0 0
2:35 pm 14:35 Cloudy 41 5 39 4.1 94 94 N 8 13 29.91 1013 10 16.0934 0 0
2:55 pm 14:55 Cloudy 41 5.1 40 4.2 94 94 N 10 17 29.91 1013 10 16.0934 0 0
3:15 pm 15:15 Cloudy 41 5.1 39 4 93 93 N 8 13 29.91 1013 10 16.0934 0 0
3:35 pm 15:35 Cloudy 41 5.2 39 4.1 93 93 N 8 13 29.91 1013 10 16.0934 0 0
3:55 pm 15:55 Cloudy 41 5.1 39 4 93 93 N 8 13 29.91 1013 10 16.0934 0 0
4:15 pm 16:15 Cloudy 42 5.3 39 4.1 92 92 N 10 17 29.91 1013 10 16.0934 0 0
4:35 pm 16:35 Cloudy 42 5.5 39 4.1 91 91 NNE 10 17 29.91 1013 10 16.0934 0 0
4:55 pm 16:55 Cloudy 42 5.5 39 4.1 91 91 NNE 9 15 29.91 1013 10 16.0934 0 0
5:15 pm 17:15 Cloudy 42 5.6 40 4.2 91 91 NNE 9 15 29.91 1013 10 16.0934 0 0
5:35 pm 17:35 Cloudy 43 6 40 4.4 90 90 NNE 10 17 29.91 1013 10 16.0934 0 0
5:55 pm 17:55 Cloudy 43 6 40 4.2 88 88 NNE 10 17 29.94 1014 10 16.0934 0 0
6:15 pm 18:15 Cloudy 43 6 40 4.3 89 89 N 13 20 29.94 1014 7 11.26538 0 0
6:35 pm 18:35 Cloudy 43 6 40 4.3 89 89 NNE 10 17 29.94 1014 7 11.26538 0 0
6:55 pm 18:55 Cloudy 43 6 40 4.3 89 89 N 12 19 29.94 1014 7 11.26538 0 0
7:15 pm 19:15 Cloudy 43 6 40 4.2 88 88 NNE 8 13 29.97 1015 7 11.26538 0 0
7:35 pm 19:35 Cloudy 43 5.9 40 4.4 90 90 N 8 13 29.97 1015 7 11.26538 0 0
7:55 pm 19:55 Cloudy 42 5.8 40 4.3 90 90 NNE 8 13 29.97 1015 10 16.0934 0 0
8:15 pm 20:15 Cloudy 42 5.8 40 4.5 91 91 NNE 7 11 30 1016 10 16.0934 0 0
8:35 pm 20:35 Cloudy 42 5.8 40 4.5 91 91 NNE 5 7 30 1016 7 11.26538 0 0
8:55 pm 20:55 Cloudy 41 5.2 40 4.2 93 93 ENE 3 6 30.03 1017 7 11.26538 0 0
9:15 pm 21:15 Cloudy 41 5.1 40 4.4 95 95 Calm 30.06 1018 7 11.26538 0 0
9:35 pm 21:35 Cloudy 41 4.8 40 4.2 96 96 Calm 30.06 1018 7 11.26538 0 0
9:55 pm 21:55 Cloudy 41 5 40 4.3 95 95 Calm 30.09 1019 7 11.26538 0 0
10:15 pm 22:15 Cloudy 40 4.6 39 4.1 97 97 Calm 30.09 1019 7 11.26538 0 0
10:35 pm 22:35 Cloudy 41 4.9 40 4.2 95 95 NNW 5 7 30.09 1019 7 11.26538 0 0
10:55 pm 22:55 Cloudy 40 4.6 39 4 96 96 N 5 7 30.09 1019 7 11.26538 0 0
11:15 pm 23:15 Mostly Cloudy 40 4.5 38 3.6 94 94 Calm 30.09 1019 7 11.26538 0 0
11:35 pm 23:35 Partly Cloudy 39 3.8 38 3.4 97 97 N 5 7 30.09 1019 7 11.26538 0 0
11:55 pm 23:55 Clear 39 3.9 37 3 94 94 N 6 9 30.09 1019 10 16.0934 0 0

Powered by AerisWeather